Regional Weather Roundup
Issued by NWS State College, PA

Home | Current Version | Previous Version | Graphics & Text | Print | Product List | Glossary On
Versions: 1 2 3 4 5 6 7 8 9 10 11 12 13 14 15 16 17 18 19 20 21 22 23 24 25 26 27 28 29 30 31 32 33 34 35 36 37 38 39 40 41 42 43 44 45 46 47 48 49 50
000
ASUS41 KCTP 010403
RWRCTP

REGIONAL WEATHER ROUNDUP
NATIONAL WEATHER SERVICE STATE COLLEGE PA
1200 AM EDT SAT OCT 01 2016

Note: "fair" indicates few or no clouds below 12,000 feet with no
significant weather and/or obstructions to visibility.

* = STATION THAT DOES NOT REPORT PRECIPITATION /E.G. RAIN...SNOW...ETC/
    THUNDER OR FOG.

PAZ002>004-007>009-013>016-020>023-029>032-010500-
WESTERN PENNSYLVANIA

CITY           SKY/WX    TMP DP  RH WIND       PRES   REMARKS
ERIE           CLOUDY    62  55  77 E6        30.12S
MEADVILLE      LGT RAIN  57  52  83 E9        30.11F
FRANKLIN*        N/A     55  50  82 E9G18     30.13S
NEW CASTLE     RAIN      58  55  90 E9G16     30.11S
BEAVER COUNTY  NOT AVBL
BUTLER*        CLOUDY    55  52  88 E10       30.13F
PITTSBURGH INT RAIN      57  57 100 E8        30.10S FOG
PITTSBURGH     CLOUDY    57  54  89 E8        30.10S
INDIANA*       CLOUDY    57  55  94 E10G18    30.16S
LATROBE        RAIN      57  57 100 CALM      30.12R
WASHINGTON CO* CLOUDY    57  54  88 NE6       30.10R
$$

PAZ004>006-010>012-017>019-024>028-033>037-041-042-045-046-049>053-010500-
CENTRAL PENNSYLVANIA

CITY           SKY/WX    TMP DP  RH WIND       PRES   REMARKS
BRADFORD       CLOUDY    53  53 100 E8        30.20S
DUBOIS         CLOUDY    54  51  90 E13G23    30.16S
CLEARFIELD     CLOUDY    54  54 100 E10       30.20S FOG
JOHNSTOWN      CLOUDY    53  53 100 E10G21    30.14F
ALTOONA        CLOUDY    55  55 100 E6        30.18S
STATE COLLEGE  CLOUDY    55  54  97 E3        30.21R FOG
WILLIAMSPORT   CLOUDY    57  56  96 CALM      30.22S
SELINSGROVE    CLOUDY    57  57 100 N3        30.23S
FT INDIANTOWN  CLOUDY    57  54  90 E12       30.21R
CAPITAL CITY   CLOUDY    59  55  87 NE8       30.19F
HARRISBURG     CLOUDY    58  57  97 E5        30.19F
YORK           CLOUDY    58  58 100 E9        30.17F
$$

PAZ038>040-043-044-047-048-054-055-060>062-067>071-010500-
EASTERN PENNSYLVANIA

CITY           SKY/WX    TMP DP  RH WIND       PRES   REMARKS
SCRANTON       CLOUDY    55  51  86 NE8       30.24F
MOUNT POCONO   NOT AVBL
ALLENTOWN      CLOUDY    56  53  90 NE13      30.23F
QUAKERTOWN*    CLOUDY    55  54  94 E8        30.23S
READING        CLOUDY    59  53  80 NE9       30.20F
LANCASTER      CLOUDY    59  57  93 E12       30.20F
COATESVILLE    CLOUDY    57  55  94 E12G21    30.21S FOG
POTTSTOWN      CLOUDY    56  55  97 NE9G16    30.22F
BLUE BELL      CLOUDY    55  54  94 NE7       30.21S
DOYLESTOWN     CLOUDY    57  56  96 NE9       30.22S
WILLOW GROVE   NOT AVBL
NORTH PHILA    CLOUDY    60  57  89 NE14G21   30.22S
PHILADELPHIA   CLOUDY    61  57  87 NE13      30.20S
$$




USA.gov is the U.S. government's official web portal to all federal, state and local government web resources and services.